When you browse on this site, cookies collect data to enhance your experience and personalize the content and advertising you see.
Visit our Privacy Policy to learn more. By continuing to use the site, you agree to this use of cookies and data.
  • In Hungary
  • List of Countries
  • For 7 days
  • Water Temperature
  • Satellite Maps
  • Weather Map
  • News
  • Weather Widgets
  • user-avatar
    Login

    Hourly Weather Gross-Umstadt

    Today, 18 June, Tuesday

    Time Temperature Precipitation Wind Pressure Humidity
    00:00 +20°C° 0 mm 1 mps 747 mmHg 80%
    01:00 +19°C° 0 mm 1 mps 747 mmHg 82%
    02:00 +19°C° 0 mm 1 mps 747 mmHg 84%
    03:00 +18°C° 0 mm 1 mps 747 mmHg 85%
    04:00 +18°C° 0 mm 1 mps 746 mmHg 87%
    05:00 +19°C° 0 mm 1 mps 746 mmHg 83%
    06:00 +20°C° 0 mm 1 mps 746 mmHg 79%
    07:00 +21°C° 0 mm 1 mps 746 mmHg 75%
    08:00 +23°C° 0 mm 1 mps 746 mmHg 69%
    09:00 +25°C° 0 mm 2 mps 746 mmHg 63%
    10:00 +27°C° 0 mm 2 mps 746 mmHg 57%
    11:00 +28°C° 0 mm 2 mps 746 mmHg 53%
    12:00 +29°C° 0 mm 3 mps 745 mmHg 49%
    13:00 +30°C° 0 mm 3 mps 745 mmHg 45%
    14:00 +30°C° 0 mm 3 mps 745 mmHg 45%
    15:00 +30°C° 0 mm 3 mps 744 mmHg 45%
    16:00 +30°C° 0 mm 2 mps 744 mmHg 45%
    17:00 +29°C° 0 mm 2 mps 744 mmHg 51%
    18:00 +28°C° 0 mm 2 mps 744 mmHg 58%
    19:00 +27°C° 0 mm 2 mps 743 mmHg 64%
    20:00 +25°C° 0 mm 1 mps 743 mmHg 67%
    21:00 +24°C° 0 mm 1 mps 744 mmHg 70%
    22:00 +23°C° 0 mm 1 mps 744 mmHg 73%
    23:00 +22°C° 0 mm 1 mps 744 mmHg 74%

    Tomorrow, 19 June, Wednesday

    Time Temperature Precipitation Wind Pressure Humidity
    00:00 +22°C° 0 mm 1 mps 743 mmHg 75%
    01:00 +21°C° 0 mm 1 mps 743 mmHg 77%
    02:00 +21°C° 0 mm 1 mps 743 mmHg 77%
    03:00 +20°C° 0 mm 1 mps 743 mmHg 78%
    04:00 +20°C° 0 mm 1 mps 743 mmHg 79%
    05:00 +21°C° 0 mm 1 mps 743 mmHg 76%
    06:00 +23°C° 0 mm 1 mps 743 mmHg 72%
    07:00 +24°C° 0 mm 1 mps 743 mmHg 69%
    08:00 +25°C° 0 mm 2 mps 743 mmHg 62%
    09:00 +27°C° 0 mm 2 mps 743 mmHg 55%
    10:00 +29°C° 0 mm 3 mps 743 mmHg 48%
    11:00 +29°C° 0 mm 3 mps 743 mmHg 44%
    12:00 +30°C° 0 mm 3 mps 742 mmHg 41%
    13:00 +31°C° 0 mm 2 mps 742 mmHg 37%
    14:00 +31°C° 0 mm 2 mps 742 mmHg 37%
    15:00 +33°C° 0 mm 3 mps 742 mmHg 37%
    16:00 +33°C° 0 mm 3 mps 741 mmHg 36%
    17:00 +30°C° 0 mm 3 mps 741 mmHg 43%
    18:00 +29°C° 0 mm 3 mps 741 mmHg 49%
    19:00 +28°C° 0 mm 2 mps 741 mmHg 55%
    20:00 +26°C° 0.8 mm 2 mps 742 mmHg 63%
    21:00 +24°C° 0.8 mm 2 mps 742 mmHg 72%
    22:00 +21°C° 0.8 mm 2 mps 742 mmHg 80%
    23:00 +21°C° 0.2 mm 1 mps 743 mmHg 81%

    Day after tomorrow, 20 June, Thursday

    Time Temperature Precipitation Wind Pressure Humidity
    00:00 +21°C° 0.2 mm 1 mps 743 mmHg 82%
    01:00 +20°C° 0.2 mm 1 mps 743 mmHg 84%
    02:00 +20°C° 0 mm 1 mps 743 mmHg 84%
    03:00 +20°C° 0 mm 1 mps 743 mmHg 85%
    04:00 +17°C° 0 mm 0 mps 743 mmHg 85%
    05:00 +18°C° 0 mm 0 mps 743 mmHg 84%
    06:00 +21°C° 0 mm 1 mps 743 mmHg 83%
    07:00 +22°C° 0 mm 1 mps 743 mmHg 81%
    08:00 +23°C° 0 mm 1 mps 743 mmHg 73%
    09:00 +25°C° 0 mm 1 mps 743 mmHg 64%
    10:00 +26°C° 0 mm 1 mps 743 mmHg 55%
    11:00 +26°C° 0.6 mm 2 mps 743 mmHg 59%
    12:00 +26°C° 0.6 mm 2 mps 743 mmHg 62%
    13:00 +26°C° 0.6 mm 3 mps 743 mmHg 65%
    14:00 +24°C° 1 mm 3 mps 743 mmHg 71%
    15:00 +22°C° 1 mm 4 mps 743 mmHg 76%
    16:00 +20°C° 1 mm 4 mps 743 mmHg 81%
    17:00 +20°C° 0.3 mm 3 mps 743 mmHg 81%
    18:00 +19°C° 0.3 mm 2 mps 744 mmHg 82%
    19:00 +20°C° 0.3 mm 1 mps 744 mmHg 82%
    20:00 +19°C° 0 mm 1 mps 744 mmHg 84%
    21:00 +19°C° 0 mm 1 mps 744 mmHg 86%
    22:00 +18°C° 0 mm 1 mps 745 mmHg 88%
    23:00 +18°C° 0 mm 1 mps 745 mmHg 88%

    21 June, Friday

    Time Temperature Precipitation Wind Pressure Humidity
    00:00 +18°C° 0 mm 1 mps 745 mmHg 89%
    01:00 +16°C° 0 mm 0 mps 745 mmHg 90%
    02:00 +16°C° 0 mm 1 mps 746 mmHg 90%
    03:00 +16°C° 0 mm 1 mps 746 mmHg 90%
    04:00 +16°C° 0 mm 1 mps 746 mmHg 90%
    05:00 +16°C° 0 mm 1 mps 746 mmHg 89%
    06:00 +18°C° 0 mm 1 mps 747 mmHg 87%
    07:00 +18°C° 0 mm 1 mps 747 mmHg 86%
    08:00 +20°C° 0.1 mm 1 mps 747 mmHg 81%
    09:00 +21°C° 0.1 mm 1 mps 747 mmHg 75%
    10:00 +21°C° 0.1 mm 2 mps 747 mmHg 70%
    11:00 +23°C° 0.2 mm 2 mps 747 mmHg 63%
    12:00 +24°C° 0.2 mm 2 mps 747 mmHg 56%
    13:00 +25°C° 0.2 mm 2 mps 747 mmHg 49%
    14:00 +25°C° 0 mm 2 mps 747 mmHg 47%
    15:00 +25°C° 0 mm 2 mps 747 mmHg 45%
    16:00 +26°C° 0 mm 2 mps 746 mmHg 44%
    17:00 +25°C° 0 mm 2 mps 747 mmHg 49%
    18:00 +24°C° 0 mm 2 mps 747 mmHg 54%
    19:00 +23°C° 0 mm 1 mps 747 mmHg 59%
    20:00 +22°C° 0 mm 1 mps 747 mmHg 60%
    21:00 +20°C° 0 mm 1 mps 748 mmHg 61%
    22:00 +19°C° 0 mm 1 mps 748 mmHg 62%
    23:00 +18°C° 0 mm 1 mps 748 mmHg 66%

    22 June, Saturday

    Time Temperature Precipitation Wind Pressure Humidity
    00:00 +16°C° 0 mm 1 mps 748 mmHg 69%
    01:00 +15°C° 0 mm 2 mps 748 mmHg 73%
    02:00 +15°C° 0 mm 1 mps 748 mmHg 76%
    03:00 +15°C° 0 mm 1 mps 748 mmHg 79%
    04:00 +14°C° 0 mm 1 mps 748 mmHg 82%
    05:00 +15°C° 0 mm 1 mps 748 mmHg 79%
    06:00 +16°C° 0 mm 1 mps 748 mmHg 75%
    07:00 +18°C° 0 mm 1 mps 749 mmHg 72%
    08:00 +19°C° 0 mm 2 mps 749 mmHg 67%
    09:00 +20°C° 0 mm 2 mps 748 mmHg 62%
    10:00 +21°C° 0 mm 2 mps 748 mmHg 57%
    11:00 +24°C° 0.1 mm 2 mps 748 mmHg 56%
    12:00 +25°C° 0.1 mm 2 mps 748 mmHg 54%
    13:00 +26°C° 0.1 mm 3 mps 747 mmHg 52%
    14:00 +26°C° 0.2 mm 3 mps 747 mmHg 53%
    15:00 +26°C° 0.2 mm 3 mps 747 mmHg 55%
    16:00 +25°C° 0.2 mm 4 mps 746 mmHg 56%
    17:00 +24°C° 0.5 mm 3 mps 746 mmHg 62%
    18:00 +22°C° 0.5 mm 3 mps 746 mmHg 68%
    19:00 +21°C° 0.5 mm 3 mps 746 mmHg 74%
    20:00 +20°C° 3.2 mm 3 mps 746 mmHg 80%
    21:00 +19°C° 3.2 mm 2 mps 747 mmHg 86%
    22:00 +18°C° 3.2 mm 2 mps 747 mmHg 92%
    23:00 +18°C° 0.9 mm 1 mps 747 mmHg 92%

    23 June, Sunday

    Time Temperature Precipitation Wind Pressure Humidity
    00:00 +18°C° 0.9 mm 1 mps 746 mmHg 93%
    01:00 +16°C° 0.9 mm 1 mps 746 mmHg 93%
    02:00 +16°C° 0.1 mm 1 mps 746 mmHg 93%
    03:00 +15°C° 0.1 mm 0 mps 746 mmHg 93%
    04:00 +15°C° 0.1 mm 0 mps 746 mmHg 93%
    05:00 +15°C° 0 mm 0 mps 746 mmHg 90%
    06:00 +18°C° 0 mm 1 mps 747 mmHg 88%
    07:00 +19°C° 0 mm 1 mps 747 mmHg 85%
    08:00 +21°C° 0 mm 1 mps 747 mmHg 75%
    09:00 +23°C° 0 mm 1 mps 747 mmHg 66%
    10:00 +24°C° 0 mm 1 mps 747 mmHg 56%
    11:00 +25°C° 0 mm 1 mps 747 mmHg 52%
    12:00 +27°C° 0 mm 1 mps 747 mmHg 48%
    13:00 +28°C° 0 mm 1 mps 747 mmHg 43%
    14:00 +28°C° 0 mm 1 mps 747 mmHg 43%
    15:00 +28°C° 0 mm 1 mps 747 mmHg 43%
    16:00 +28°C° 0 mm 1 mps 747 mmHg 43%
    17:00 +27°C° 0 mm 1 mps 747 mmHg 49%
    18:00 +26°C° 0 mm 1 mps 747 mmHg 55%
    19:00 +25°C° 0 mm 1 mps 747 mmHg 61%
    20:00 +23°C° 0 mm 1 mps 747 mmHg 68%
    21:00 +20°C° 0 mm 2 mps 748 mmHg 74%
    22:00 +19°C° 0 mm 2 mps 748 mmHg 80%
    23:00 +19°C° 0 mm 1 mps 748 mmHg 81%
    Show more